When you browse on this site, cookies collect data to enhance your experience and personalize the content and advertising you see.
Visit our Privacy Policy to learn more. By continuing to use the site, you agree to this use of cookies and data.
  • Em Portugal
  • Lista de países
  • Para 7 dias
  • Temperatura da água
  • Mapas de satélite
  • Mapa do tempo
  • Widgets de tempo
  • user-avatar
    Iniciar Sessão

    Previsão horária em Diveevka

    Hoje, 24 Junho, Segunda-feira

    Tempo Temperatura Precipitação Vento Pressão Humidade
    00:00 +17°C° 0.4 mm 2 m/s 750 mmHg 89%
    01:00 +17°C° 0.7 mm 2 m/s 750 mmHg 90%
    02:00 +16°C° 0.7 mm 2 m/s 750 mmHg 90%
    03:00 +15°C° 0 mm 2 m/s 750 mmHg 90%
    04:00 +16°C° 0.7 mm 2 m/s 750 mmHg 90%
    05:00 +16°C° 0.7 mm 2 m/s 750 mmHg 89%
    06:00 +17°C° 0.7 mm 2 m/s 750 mmHg 89%
    07:00 +18°C° 0.1 mm 2 m/s 750 mmHg 85%
    08:00 +18°C° 0.1 mm 2 m/s 751 mmHg 82%
    09:00 +20°C° 0 mm 1 m/s 751 mmHg 78%
    10:00 +21°C° 0 mm 2 m/s 751 mmHg 71%
    11:00 +22°C° 0 mm 3 m/s 751 mmHg 63%
    12:00 +24°C° 0 mm 3 m/s 751 mmHg 56%
    13:00 +25°C° 0 mm 3 m/s 751 mmHg 53%
    14:00 +25°C° 0 mm 3 m/s 751 mmHg 51%
    15:00 +25°C° 0 mm 2 m/s 751 mmHg 51%
    16:00 +25°C° 0 mm 2 m/s 751 mmHg 54%
    17:00 +25°C° 0 mm 2 m/s 750 mmHg 58%
    18:00 +24°C° 0 mm 2 m/s 750 mmHg 61%
    19:00 +21°C° 0 mm 3 m/s 751 mmHg 64%
    20:00 +20°C° 0 mm 3 m/s 751 mmHg 68%
    21:00 +18°C° 0 mm 3 m/s 752 mmHg 71%
    22:00 +17°C° 0 mm 3 m/s 752 mmHg 70%
    23:00 +16°C° 0 mm 3 m/s 752 mmHg 68%

    Amanhã, 25 Junho, Terça-feira

    Tempo Temperatura Precipitação Vento Pressão Humidade
    00:00 +14°C° 0 mm 3 m/s 752 mmHg 67%
    01:00 +13°C° 0 mm 3 m/s 752 mmHg 70%
    02:00 +12°C° 0 mm 3 m/s 752 mmHg 73%
    03:00 +12°C° 0 mm 3 m/s 753 mmHg 77%
    04:00 +12°C° 0 mm 3 m/s 753 mmHg 76%
    05:00 +13°C° 0 mm 3 m/s 753 mmHg 74%
    06:00 +13°C° 0 mm 4 m/s 753 mmHg 73%
    07:00 +15°C° 0 mm 4 m/s 753 mmHg 68%
    08:00 +17°C° 0 mm 4 m/s 754 mmHg 62%
    09:00 +19°C° 0 mm 4 m/s 754 mmHg 57%
    10:00 +20°C° 0 mm 4 m/s 754 mmHg 54%
    11:00 +21°C° 0 mm 4 m/s 754 mmHg 51%
    12:00 +21°C° 0 mm 4 m/s 754 mmHg 48%
    13:00 +22°C° 0 mm 4 m/s 754 mmHg 47%
    14:00 +22°C° 0 mm 4 m/s 754 mmHg 47%
    15:00 +22°C° 0 mm 4 m/s 754 mmHg 46%
    16:00 +21°C° 0 mm 4 m/s 754 mmHg 50%
    17:00 +21°C° 0 mm 3 m/s 754 mmHg 54%
    18:00 +20°C° 0 mm 3 m/s 754 mmHg 58%
    19:00 +18°C° 0 mm 3 m/s 754 mmHg 64%
    20:00 +16°C° 0 mm 3 m/s 754 mmHg 71%
    21:00 +15°C° 0 mm 2 m/s 754 mmHg 77%
    22:00 +14°C° 0 mm 2 m/s 754 mmHg 80%
    23:00 +13°C° 0 mm 2 m/s 754 mmHg 83%

    Depois de amanhã, 26 Junho, Quarta-feira

    Tempo Temperatura Precipitação Vento Pressão Humidade
    00:00 +12°C° 0 mm 2 m/s 754 mmHg 86%
    01:00 +12°C° 0 mm 2 m/s 754 mmHg 86%
    02:00 +10°C° 0 mm 2 m/s 755 mmHg 85%
    03:00 +10°C° 0 mm 2 m/s 755 mmHg 85%
    04:00 +12°C° 0 mm 2 m/s 755 mmHg 82%
    05:00 +12°C° 0 mm 2 m/s 754 mmHg 79%
    06:00 +13°C° 0 mm 2 m/s 754 mmHg 76%
    07:00 +14°C° 0 mm 3 m/s 754 mmHg 69%
    08:00 +16°C° 0 mm 3 m/s 754 mmHg 62%
    09:00 +18°C° 0 mm 3 m/s 754 mmHg 55%
    10:00 +19°C° 0 mm 3 m/s 754 mmHg 52%
    11:00 +20°C° 0 mm 3 m/s 753 mmHg 49%
    12:00 +21°C° 0 mm 3 m/s 753 mmHg 46%
    13:00 +21°C° 0 mm 3 m/s 753 mmHg 47%
    14:00 +21°C° 0 mm 2 m/s 752 mmHg 48%
    15:00 +21°C° 0 mm 2 m/s 752 mmHg 50%
    16:00 +20°C° 0.1 mm 3 m/s 752 mmHg 55%
    17:00 +20°C° 0.1 mm 3 m/s 751 mmHg 60%
    18:00 +19°C° 0.1 mm 4 m/s 750 mmHg 65%
    19:00 +18°C° 0.2 mm 3 m/s 750 mmHg 73%
    20:00 +16°C° 0.2 mm 2 m/s 750 mmHg 81%
    21:00 +15°C° 0.2 mm 1 m/s 750 mmHg 88%
    22:00 +15°C° 0.1 mm 1 m/s 749 mmHg 90%
    23:00 +14°C° 0.1 mm 1 m/s 749 mmHg 91%

    27 Junho, Quinta-feira

    Tempo Temperatura Precipitação Vento Pressão Humidade
    00:00 +14°C° 0.1 mm 2 m/s 748 mmHg 92%
    01:00 +14°C° 0.1 mm 2 m/s 748 mmHg 94%
    02:00 +14°C° 0.1 mm 2 m/s 748 mmHg 95%
    03:00 +14°C° 0.1 mm 2 m/s 747 mmHg 96%
    04:00 +14°C° 0 mm 2 m/s 747 mmHg 95%
    05:00 +14°C° 0 mm 2 m/s 746 mmHg 94%
    06:00 +14°C° 0 mm 1 m/s 746 mmHg 94%
    07:00 +15°C° 0 mm 1 m/s 745 mmHg 87%
    08:00 +17°C° 0 mm 2 m/s 745 mmHg 79%
    09:00 +18°C° 0 mm 2 m/s 744 mmHg 72%
    10:00 +17°C° 0.2 mm 3 m/s 744 mmHg 77%
    11:00 +17°C° 0.2 mm 3 m/s 743 mmHg 82%
    12:00 +17°C° 0.2 mm 4 m/s 743 mmHg 86%
    13:00 +15°C° 1.3 mm 4 m/s 742 mmHg 90%
    14:00 +14°C° 1.3 mm 4 m/s 741 mmHg 93%
    15:00 +14°C° 1.3 mm 4 m/s 741 mmHg 97%
    16:00 +14°C° 2.5 mm 5 m/s 740 mmHg 97%
    17:00 +15°C° 2.5 mm 5 m/s 739 mmHg 97%
    18:00 +15°C° 2.5 mm 6 m/s 738 mmHg 97%
    19:00 +15°C° 1.9 mm 6 m/s 738 mmHg 97%
    20:00 +16°C° 1.9 mm 5 m/s 737 mmHg 97%
    21:00 +16°C° 1.9 mm 5 m/s 736 mmHg 97%
    22:00 +16°C° 1 mm 5 m/s 736 mmHg 97%
    23:00 +16°C° 1 mm 5 m/s 735 mmHg 96%

    28 Junho, Sexta-feira

    Tempo Temperatura Precipitação Vento Pressão Humidade
    00:00 +17°C° 1 mm 5 m/s 735 mmHg 96%
    01:00 +16°C° 1.6 mm 5 m/s 734 mmHg 96%
    02:00 +16°C° 1.6 mm 6 m/s 734 mmHg 96%
    03:00 +16°C° 1.6 mm 6 m/s 733 mmHg 97%
    04:00 +16°C° 1.8 mm 6 m/s 733 mmHg 96%
    05:00 +15°C° 1.8 mm 5 m/s 732 mmHg 96%
    06:00 +15°C° 1.8 mm 5 m/s 732 mmHg 96%
    07:00 +15°C° 1 mm 5 m/s 732 mmHg 96%
    08:00 +15°C° 1 mm 5 m/s 732 mmHg 97%
    09:00 +15°C° 1 mm 5 m/s 732 mmHg 97%
    10:00 +15°C° 0.1 mm 5 m/s 732 mmHg 92%
    11:00 +16°C° 0.1 mm 5 m/s 732 mmHg 87%
    12:00 +16°C° 0.1 mm 5 m/s 732 mmHg 81%
    13:00 +17°C° 0.2 mm 5 m/s 733 mmHg 79%
    14:00 +17°C° 0.2 mm 5 m/s 733 mmHg 77%
    15:00 +19°C° 0.2 mm 5 m/s 733 mmHg 75%
    16:00 +19°C° 0.1 mm 5 m/s 733 mmHg 74%
    17:00 +17°C° 0.1 mm 5 m/s 733 mmHg 73%
    18:00 +17°C° 0.1 mm 5 m/s 733 mmHg 72%
    19:00 +17°C° 0 mm 4 m/s 733 mmHg 78%
    20:00 +14°C° 0 mm 4 m/s 733 mmHg 83%
    21:00 +13°C° 0 mm 3 m/s 733 mmHg 89%
    22:00 +12°C° 0 mm 3 m/s 733 mmHg 91%
    23:00 +12°C° 0 mm 3 m/s 733 mmHg 93%

    29 Junho, Sábado

    Tempo Temperatura Precipitação Vento Pressão Humidade
    00:00 +11°C° 0 mm 3 m/s 733 mmHg 95%
    01:00 +11°C° 0 mm 3 m/s 733 mmHg 94%
    02:00 +11°C° 0 mm 3 m/s 733 mmHg 93%
    03:00 +11°C° 0 mm 4 m/s 733 mmHg 92%
    04:00 +12°C° 0 mm 4 m/s 734 mmHg 90%
    05:00 +12°C° 0 mm 4 m/s 734 mmHg 89%
    06:00 +12°C° 0 mm 4 m/s 734 mmHg 88%
    07:00 +13°C° 0 mm 4 m/s 734 mmHg 83%
    08:00 +14°C° 0 mm 5 m/s 735 mmHg 79%
    09:00 +15°C° 0 mm 5 m/s 735 mmHg 74%
    10:00 +15°C° 0.1 mm 4 m/s 735 mmHg 72%
    11:00 +17°C° 0.1 mm 4 m/s 735 mmHg 69%
    12:00 +18°C° 0.1 mm 4 m/s 735 mmHg 67%
    13:00 +18°C° 0.3 mm 3 m/s 735 mmHg 66%
    14:00 +19°C° 0.3 mm 3 m/s 735 mmHg 66%
    15:00 +19°C° 0.3 mm 3 m/s 736 mmHg 65%
    16:00 +19°C° 0.2 mm 3 m/s 736 mmHg 67%
    17:00 +19°C° 0.2 mm 3 m/s 736 mmHg 70%
    18:00 +18°C° 0.2 mm 3 m/s 736 mmHg 72%
    19:00 +17°C° 0.2 mm 2 m/s 736 mmHg 79%
    20:00 +15°C° 0.2 mm 2 m/s 737 mmHg 85%
    21:00 +13°C° 0.2 mm 1 m/s 737 mmHg 91%
    22:00 +13°C° 0 mm 1 m/s 737 mmHg 92%
    23:00 +12°C° 0 mm 1 m/s 737 mmHg 93%
    Mostrar mais